STARLINK-33959

Last updated on Wed Jun 04 2025 00:02:04 GMT+0000 (Coordinated Universal Time)

1 63817U 25092P 25154.58335648 .00012069 00000+0 29603-3 0 9992 2 63817 42.9997 311.0139 0001998 233.8235 114.2226 15.40668030 5947
UTC large
Height (km)
Speed (km/s)
/
Latitude / Longitude
Inclination (degrees)
Orbital Period (minutes)
Azimuth
Elevation
Range (km)
Doppler Factor

Next 0 passes for location: London (51.5072 / 0.1276)

Sorry there are no passes over London.